Regional Weather Roundup
Issued by NWS Sterling, VA

Home | Current Version | Previous Version | Text Only | Print | Product List | Glossary On
Versions: 1 2 3 4 5 6 7 8 9 10 11 12 13 14 15 16 17 18 19 20 21 22 23 24 25 26 27 28 29 30 31 32 33 34 35 36 37 38 39 40 41 42 43 44 45 46 47 48
000
ASUS41 KLWX 260210
RWRLWX

REGIONAL WEATHER ROUNDUP
NATIONAL WEATHER SERVICE BALTIMORE MD/WASHINGTON DC
1000 PM EDT SAT APR 25 2015

Note: "FAIR" indicates few or no clouds below 12,000 feet
with no significant weather and/or obstructions to visibility.
 TC=TEMPERATURE CELSIUS

 * =Non NWS site. Station does not report precipitation (e.g. rain,
    snow, etc.), thunder, or fog.

DCZ001-MDZ009-015-VAZ040>042-051-053>054-260300-
WASHINGTON METRO

CITY           SKY/WX    TMP DP  RH WIND       PRES   REMARKS
WASHINGTON NAT LGT RAIN  45  40  82 N12       29.77R
DULLES         LGT RAIN  41  38  89 NW10      29.77R FOG
ANDREWS AFB    LGT RAIN  43  42  96 N8        29.75R
FT BELVOIR     LGT RAIN  43  39  87 NW6       29.76R FOG
QUANTICO       LGT RAIN  43  39  86 N7        29.78R
COLLEGE PARK*  CLOUDY    43  41  93 NW5       29.76S
LEESBURG*      LGT RAIN  41  41 100 N5        29.78R
MANASSAS*      RAIN      43  43 100 CALM      29.77R
GAITHERSBURG*  CLOUDY    39  36  87 W6        29.80S

$$

MDZ006>007-011-014-260300-
BALTIMORE METRO

CITY           SKY/WX    TMP DP  RH WIND       PRES   REMARKS
BWI AIRPORT    LGT RAIN  42  39  89 SW6       29.76R
MD SCIENCE CTR   N/A     45  40  82 MISG      29.76R
MARTIN STATE   CLEAR     46  37  71 SW8       29.77R
ANNAPOLIS      LGT RAIN  45  41  86 W5        29.76R
FORT MEADE*    CLOUDY    41  39  93 NW3       29.78R

$$

MDZ012-015-019>023-260300-
MARYLAND EASTERN SHORE

CITY           SKY/WX    TMP DP  RH WIND       PRES   REMARKS
OCEAN CITY     CLOUDY    45  43  93 NE5       29.73F
SALISBURY      LGT RAIN  45  44  97 NE5       29.72F
BAY BRIDGE AP* DRIZZLE  N/A N/A N/A W6        29.76R
CAMBRIDGE*     CLOUDY    45  41  87 CALM      29.73R
EASTON*        CLOUDY    46  46 100 NW5       29.78

$$

MDZ017>025-260300-
SOUTHERN MARYLAND

CITY           SKY/WX    TMP DP  RH WIND       PRES   REMARKS
PATUXENT RIVER LGT RAIN  45  43  93 NE3       29.73R
ST INIGOES     LGT RAIN  45  43  93 NE5       29.72R FOG
LEONARDTOWN*   CLOUDY    43  41  93 CALM      29.74S

$$

MDZ003>005-260300-
NORTH CENTRAL MARYLAND

CITY           SKY/WX    TMP DP  RH WIND       PRES   REMARKS
FREDERICK*     DRIZZLE   41  36  81 W5        29.79S
HAGERSTOWN APT CLOUDY    43  33  68 S7        29.75R
WESTMINSTER*   CLOUDY    43  30  61 SW10      29.74R

$$

MDZ501>502-260300-
WESTERN MARYLAND

CITY           SKY/WX    TMP DP  RH WIND       PRES   REMARKS
OAKLAND*       FOG       32 N/A N/A SE7       29.69F VSB 1/2
CUMBERLAND*      N/A     41  39  93 CALM      29.80

$$

VAZ025>031-260300-
SHENANDOAH VALLEY

CITY           SKY/WX    TMP DP  RH WIND       PRES   REMARKS
WINCHESTER*    LGT RAIN  41  36  81 CALM      29.77R
FRONT ROYAL*   CLOUDY    39  39 100 NE5       29.73F
LURAY*         DRIZZLE   43  43 100 CALM      29.74R
NEW MARKET*    CLOUDY    41  40  97 CALM      29.73S
STAUNTON*      CLOUDY    41  39  93 NE5       29.72F
WAYNESBORO*    CLOUDY    38  38  99 CALM      29.69F

$$

WVZ021-048>050-054>055-260300-
EASTERN WEST VIRGINIA PANHANDLE

CITY           SKY/WX    TMP DP  RH WIND       PRES   REMARKS
MARTINSBURG    LGT RAIN  40  37  89 SW5       29.77S FOG
PETERSBURG*    RAIN      42  37  84 CALM      29.74S

$$

VAZ036>039-050-260300-
CENTRAL FOOTHILLS

CITY           SKY/WX    TMP DP  RH WIND       PRES   REMARKS
CHARLOTTESVILL CLOUDY    41  39  93 E3        29.72R
CULPEPER*      RAIN      43  41  93 CALM      29.76S
ORANGE*        LGT RAIN  43  41  93 CALM      29.76R
GORDONSVILLE*  CLOUDY    40  39  97 CALM      29.74F
WARRENTON*     DRIZZLE   42  42  99 CALM      29.76R

$$

VAZ055>057-260300-
NORTH AND CENTRAL PIEDMONT

CITY           SKY/WX    TMP DP  RH WIND       PRES   REMARKS
FREDERICKSBRG* LGT RAIN  44  44 100 NW6       29.76R
STAFFORD*      RAIN      41  32  70 NW5       29.81R

$$

NCZ024-NYZ072-PAZ021-071-VAZ022-071-260300-
OTHER REGIONAL OBSERVATIONS

CITY           SKY/WX    TMP DP  RH WIND       PRES   REMARKS
NEW YORK CITY  PTCLDY    51  34  52 CALM      29.72F
PHILADELPHIA   CLOUDY    51  29  42 SW9       29.72F
PITTSBURGH     CLOUDY    51  19  28 NE6       29.67F
ROANOKE        CLOUDY    41  41 100 CALM      29.72F
RICHMOND       LGT RAIN  46  45  93 CALM      29.72R FOG
RALEIGH        LGT RAIN  51  50  96 NE7       29.65S VSB 1/2

$$

ANZ530>537-260300-
MARINE OBSERVATIONS

STATION/POSITION TIME  TEMP    WIND        PRES
                       AIR SEA DIR/SP/G
                 (UTC) (F)     (DEG/KT/KT) (MB)
THOMAS PT LIGHT  0200   45 52  320/ 10/ 11 1008.2R
BALT KEY BRIDGE  0100   45     230/ 11/ 13 1006.8F
COVE POINT       0100   44      90/  5/  6 1007.1F
LEWISETTA        0100   46 56              1006.1F
SOLOMONS ISLAND  0100      55                N/A
PINEY POINT      0100          140/  7/  8   N/A

$$



USA.gov is the U.S. government's official web portal to all federal, state and local government web resources and services.